Starlink 3952

operational
NORAD ID: 52534 Int'l Des: 2022-051 Owner: SPXS Country: US Constellation: starlink
LEOCIRCULAR

Über Starlink 3952

Beschreibung wird geladen...

Live-Position

3D-Globus wird geladen...

Nächste Überflüge

Höhenverlauf

Altitude vs Time

uPlot chart will show altitude changes over time

Zweizeiliger Elementsatz

1 52534U 22051B 25302.88962510 .00000158 00000-0 28023-4 0 9993
2 52534 53.2187 356.3041 0001381 86.1942 273.9208 15.08840182192439
Epoch: 29. Okt. 2025 • Age: 7 hours

Aktueller Status

Höhe 554.3 km
Geschwindigkeit 7.58 km/s
Subsatellitenpunkt -41.43°S, 105.93°E
Startdatum 13. Mai 2022
Alter 3.4 years
Typ internet

Technische Details

Klassifizierung Payload
Masse 297.00 kg
Trockenmasse 275.00 kg
Gesamtmasse 297.00 kg
Länge 0.20 m
Durchmesser 2.80 m
Spannweite 9.00 m
Form Box + pan
Hersteller SPXS
Bus-Typ Starlink
Phasenstatus In Orbit
Besitzer/Staat SPXS/US

Große Konstellationen

Loading constellations...